Flag for U.S.A. Weather past 2 weeks in Rapid City, South Dakota, U.S.A.

Now
68 °F

Sunny.


Feels Like: 68 °F
Forecast: 45 / 70 °F
Wind: 8 mph from North

Location: Ellsworth Air Force Base

Current Time: Sep 20, 2014 at 8:15:06 PM

Latest Report: Sep 20, 2014 at 6:58 PM


Visibility: 10 mi

Pressure: 30.17 "Hg

Humidity: 37%

Dew point: 41 °F

Location of Rapid CityLocation

Historic Weather in Rapid City — Graph

°F

Rapid City temperature yesterday

Maximum temperature yesterday: 83 °F (at 12:58 PM)
Minimum temperature yesterday: 62 °F (at 6:58 AM)
Average temperature yesterday: 73 °F

Past Weeks' High & Low Weather Summary

 TemperatureHumidityPressure
High90 °F (Sep 18, 4:58 PM)100% (Sep 9, 6:58 PM)30.62 "Hg (Sep 9, 6:58 PM)
Low31 °F (Sep 12, 6:58 AM)12% (Sep 8, 12:58 PM)29.63 "Hg (Sep 18, 10:58 PM)
Average57 °F64%30.06 "Hg
* Reported Sep 5 6:58 PM — Sep 20 6:58 PM, Rapid City, Weather by CustomWeather, © 2014

Note: Actual official high and low records may vary slightly from our data, if they occured in-between our weather recording intervals... More about our weather records

Advertising

Rapid City weather history for previous 24 hours

 ConditionsComfort  
Time TempWeatherWind HumidityBarometerVisibility
6:58 PM
Sep 20
68 °FSunny.8 mph37%30.17 "Hg10 mi
5:58 PM72 °FSunny.17 mph30%30.15 "Hg10 mi
4:58 PM74 °FSunny.21 mph27%30.14 "Hg10 mi
3:58 PM75 °FSunny.25 mph27%30.12 "Hg10 mi
2:58 PM76 °FSunny.23 mph28%30.10 "Hg10 mi
1:58 PM77 °FSunny.25 mph27%30.09 "Hg10 mi
12:58 PM77 °FSunny.32 mph29%30.08 "Hg10 mi
11:58 AM75 °FSunny.23 mph34%30.08 "Hg10 mi
6:58 AM54 °FClear.9 mph76%30.01 "Hg10 mi
5:58 AM54 °FClear.7 mph74%30.00 "Hg10 mi
4:58 AM54 °FClear.8 mph74%29.97 "Hg10 mi
3:58 AM55 °FPassing clouds.8 mph74%29.96 "Hg10 mi
2:58 AM58 °FClear.7 mph69%29.95 "Hg10 mi
1:58 AM61 °FDrizzle. Overcast.5 mph64%29.94 "Hg10 mi
12:58 AM62 °FPartly cloudy.9 mph60%29.93 "Hg10 mi
11:58 PM
Sep 19
65 °FOvercast.7 mph58%29.93 "Hg10 mi
10:58 PM64 °FPassing clouds.7 mph57%29.90 "Hg10 mi
9:58 PM65 °FOvercast.6 mph58%29.90 "Hg9 mi
8:58 PM64 °FPassing clouds.9 mph59%29.89 "Hg10 mi
Weather by CustomWeather, © 2014

See weather overviewHow to use our weather pages